Location: Maccacari
(45.1333°N, 11.1333°E)
Time: 08:09:46
(UTC+00:00)

Cosmos 1707 - Pass Details

Date: 18 September 2020
Orbit: 515 x 530 km, 82.5° (Epoch: 29 October)

Event Time Altitude Azimuth Distance (km) Brightness Sun altitude
Rises 17:41:03 0° 6° (N) 2,652 6.3 -4.5°
Reaches altitude 10° 17:43:44 10° 25° (NNE) 1,757 5.2 -5.0°
Maximum altitude 17:46:28 18° 71° (ENE) 1,309 4.2 -5.5°
Drops below altitude 10° 17:49:10 10° 116° (ESE) 1,743 4.8 -5.9°
Enters shadow 17:50:42 - 129° (SE) 2,230 5.4 -6.2°
